Bellaire, MI

12:12 PM EDT on October 20, 2017 (GMT -0400)
Antrim County

Weather History for KACB - February, 2013

Change the Weather History Date:

Thursday, February 14, 2013

  Actual Average (KCVX) Record (KCVX)
Temperature  
Mean Temperature 28 °F -  
Max Temperature 34 °F 28 °F 46 °F (2002)
Min Temperature 24 °F 19 °F -7 °F (2015)
Degree Days  
Heating Degree Days 36    
Moisture  
Dew Point 29 °F    
Average Humidity 90    
Maximum Humidity 96    
Minimum Humidity 78    
Precipitation  
Precipitation 0.00 in - - ()
Sea Level Pressure  
Sea Level Pressure 29.66 in    
Wind  
Wind Speed 4 mph (West)    
Max Wind Speed 14 mph    
Max Gust Speed 24 mph    
Visibility 3 miles    
Events      
Averages and records for this station are not official NWS values.
T = Trace of Precipitation, MM = Missing Value Source: NWS Daily Summary

Daily Weather History Graph

Daily Weather History Graph

Search for Another Location

Airport or City:

Trip Planner

Search our weather history database for the weather conditions in past years. The results will help you decide how hot, cold, wet, or windy it might be!

Date:

Astronomy

Feb. 14, 2013 Rise Set
Actual Time 7:42 AM EST 6:07 PM EST
Civil Twilight 7:12 AM EST 6:38 PM EST
Nautical Twilight 6:38 AM EST 7:12 PM EST
Astronomical Twilight 6:04 AM EST 7:46 PM EST
Moon 9:29 AM EST (2/14) 11:26 PM EST (2/14)
Length of Visible Light 11h 25m
Length of Day
10h 25m
Waxing Crescent, 21% of the Moon is Illuminated
Feb 14
Waxing Crescent
Feb 17
First Quarter
Feb 25
Full
Mar 4
Last Quarter
Mar 11
New

Hourly Weather History & Observations

Time (EST) Temp. Windchill Dew Point Humidity Pressure Visibility Wind Dir Wind Speed Gust Speed Precip Events Conditions
12:15 AM 33.4 °F 30.4 °F 28.8 °F 83% 29.66 in 7.0 mi SSW 3.5 mph - N/A   Overcast
12:35 AM 33.8 °F 30.8 °F 28.8 °F 82% 29.66 in 7.0 mi SSW 3.5 mph - N/A   Overcast
12:54 AM 33.8 °F 30.8 °F 28.9 °F 82% 29.66 in 7.0 mi SSW 3.5 mph - N/A   Overcast
1:15 AM 33.4 °F 28.1 °F 28.9 °F 84% 29.66 in 7.0 mi SSW 5.8 mph - N/A   Overcast
1:35 AM 33.1 °F 28.7 °F 28.8 °F 84% 29.67 in 5.0 mi SSW 4.6 mph - N/A   Overcast
1:54 AM 32.9 °F 29.8 °F 28.9 °F 85% 29.66 in 5.0 mi SSW 3.5 mph - N/A   Mostly Cloudy
2:15 AM 32.5 °F 29.3 °F 28.9 °F 87% 29.66 in 5.0 mi SSW 3.5 mph - N/A   Mostly Cloudy
2:34 AM 32.5 °F 28.1 °F 29.1 °F 87% 29.66 in 5.0 mi SSW 4.6 mph - N/A   Overcast
2:54 AM 32.5 °F 28.1 °F 29.3 °F 88% 29.65 in 5.0 mi SSW 4.6 mph - N/A   Overcast
3:15 AM 32.4 °F 27.9 °F 29.1 °F 88% 29.65 in 5.0 mi SSW 4.6 mph - N/A   Mostly Cloudy
3:35 AM 32.0 °F 28.7 °F 29.1 °F 89% 29.65 in 5.0 mi SSW 3.5 mph - N/A   Scattered Clouds
3:54 AM 32.0 °F 28.7 °F 29.1 °F 89% 29.65 in 4.0 mi SSW 3.5 mph - N/A   Mostly Cloudy
4:15 AM 32.0 °F 28.7 °F 29.1 °F 89% 29.64 in 4.0 mi SW 3.5 mph - N/A   Overcast
4:29 AM 32.0 °F - 29.1 °F 89% 29.64 in 5.0 mi Calm Calm - N/A   Overcast
4:54 AM 32.0 °F 28.7 °F 29.1 °F 89% 29.64 in 5.0 mi SSW 3.5 mph - N/A   Overcast
5:15 AM 32.0 °F - 29.3 °F 90% 29.64 in 5.0 mi Calm Calm - N/A   Overcast
5:34 AM 32.2 °F - 29.3 °F 89% 29.64 in 3.0 mi Calm Calm - N/A   Overcast
5:55 AM 32.2 °F 28.9 °F 29.8 °F 91% 29.64 in 2.5 mi SSW 3.5 mph - N/A   Overcast
6:14 AM 32.5 °F - 30.2 °F 91% 29.63 in 4.0 mi Calm Calm - N/A   Overcast
6:35 AM 32.5 °F 29.3 °F 30.2 °F 91% 29.63 in 4.0 mi South 3.5 mph - N/A   Overcast
7:14 AM 32.5 °F - 30.2 °F 91% 29.63 in 4.0 mi Calm Calm - N/A   Overcast
7:35 AM 32.9 °F - 30.0 °F 89% 29.63 in 5.0 mi Calm Calm - N/A   Overcast
7:55 AM 32.9 °F 29.8 °F 30.0 °F 89% 29.63 in 4.0 mi South 3.5 mph - N/A   Overcast
8:14 AM 33.1 °F - 30.0 °F 89% 29.63 in 3.0 mi Calm Calm - N/A   Overcast
8:35 AM 33.3 °F - 29.8 °F 87% 29.63 in 4.0 mi Calm Calm - N/A   Overcast
8:54 AM 33.4 °F 30.4 °F 29.7 °F 86% 29.63 in 4.0 mi South 3.5 mph - N/A   Haze
9:15 AM 33.8 °F 30.8 °F 30.0 °F 86% 29.63 in 2.5 mi South 3.5 mph - N/A   Overcast
9:35 AM 33.4 °F 29.1 °F 30.2 °F 88% 29.63 in 1.2 mi South 4.6 mph - N/A   Overcast
9:54 AM 33.1 °F 27.7 °F 30.9 °F 92% 29.63 in 0.8 mi South 5.8 mph - N/A   Overcast
10:15 AM 33.1 °F - 31.1 °F 92% 29.62 in 0.8 mi Calm Calm - N/A   Overcast
10:35 AM 33.1 °F - 31.1 °F 92% 29.61 in 0.5 mi Calm Calm - N/A   Overcast
10:54 AM 32.9 °F - 31.1 °F 93% 29.61 in 0.2 mi Calm Calm - N/A   Overcast
11:15 AM 32.9 °F 29.8 °F 31.5 °F 94% 29.60 in 0.2 mi ENE 3.5 mph - N/A   Overcast
11:35 AM 32.9 °F - 31.6 °F 95% 29.60 in 0.5 mi Calm Calm - N/A   Overcast
11:54 AM 32.9 °F - 31.8 °F 96% 29.59 in 0.8 mi Calm Calm - N/A   Overcast
12:15 PM 32.9 °F - 31.8 °F 96% 29.59 in 1.0 mi Calm Calm - N/A   Overcast
12:35 PM 32.9 °F - 31.8 °F 96% 29.58 in 0.8 mi Calm Calm - N/A   Overcast
12:55 PM 33.1 °F - 32.0 °F 96% 29.58 in 0.8 mi Calm Calm - N/A   Overcast
1:15 PM 33.1 °F - 32.0 °F 96% 29.58 in 0.8 mi Calm Calm - N/A   Overcast
1:34 PM 33.3 °F - 32.0 °F 95% 29.57 in 0.8 mi Calm Calm - N/A   Overcast
1:55 PM 33.8 °F - 32.0 °F 93% 29.57 in 0.8 mi Calm Calm - N/A   Overcast
2:15 PM 33.8 °F - 32.4 °F 94% 29.57 in 1.0 mi Calm Calm - N/A   Overcast
2:34 PM 33.4 °F - 32.0 °F 94% 29.56 in 0.8 mi Calm Calm - N/A   Overcast
2:55 PM 33.6 °F - 32.2 °F 94% 29.57 in 0.8 mi Calm Calm - N/A   Overcast
3:15 PM 33.4 °F - 32.0 °F 94% 29.57 in 0.8 mi Calm Calm - N/A   Overcast
3:34 PM 33.1 °F - 32.0 °F 96% 29.57 in 0.8 mi Calm Calm - N/A   Overcast
3:55 PM 32.9 °F - 32.0 °F 96% 29.58 in 0.5 mi Calm Calm - N/A   Overcast
4:15 PM 32.9 °F - 32.0 °F 96% 29.59 in 0.5 mi Calm Calm - N/A   Overcast
4:35 PM 32.9 °F 29.8 °F 32.0 °F 96% 29.59 in 0.8 mi NNW 3.5 mph - N/A   Overcast
4:55 PM 32.9 °F 29.8 °F 31.8 °F 96% 29.60 in 0.5 mi NNW 3.5 mph - N/A   Overcast
5:15 PM 32.5 °F 28.1 °F 31.6 °F 96% 29.61 in 0.8 mi North 4.6 mph - N/A   Overcast
5:35 PM 32.9 °F 26.7 °F 31.8 °F 96% 29.62 in 1.5 mi NNW 6.9 mph - N/A   Overcast
5:55 PM 32.5 °F 24.8 °F 31.1 °F 94% 29.63 in 1.2 mi North 9.2 mph 17.3 mph N/A   Overcast
6:14 PM 32.4 °F 23.0 °F 30.7 °F 94% 29.65 in 1.0 mi NNW 12.7 mph 19.6 mph N/A   Overcast
6:35 PM 32.0 °F 22.5 °F 29.3 °F 90% 29.67 in 3.0 mi NNW 12.7 mph 20.7 mph N/A   Overcast
6:55 PM 31.3 °F 22.1 °F 28.4 °F 89% 29.69 in 2.5 mi NNW 11.5 mph 24.2 mph N/A   Overcast
7:14 PM 30.6 °F 22.4 °F 27.5 °F 88% 29.70 in 1.8 mi NNW 9.2 mph 23.0 mph N/A   Overcast
7:35 PM 30.2 °F 19.8 °F 27.3 °F 89% 29.72 in 1.8 mi NW 13.8 mph 19.6 mph N/A   Overcast
7:55 PM 29.3 °F 20.8 °F 25.9 °F 87% 29.73 in 2.5 mi NNW 9.2 mph 24.2 mph N/A   Overcast
8:15 PM 28.9 °F 18.2 °F 25.7 °F 88% 29.75 in 2.5 mi NW 13.8 mph 20.7 mph N/A   Overcast
8:35 PM 27.9 °F 18.4 °F 24.1 °F 86% 29.76 in 3.0 mi NNW 10.4 mph 19.6 mph N/A   Overcast
8:55 PM 27.3 °F 17.1 °F 23.5 °F 86% 29.78 in 3.0 mi NW 11.5 mph 19.6 mph N/A   Overcast
9:15 PM 26.6 °F 15.7 °F 22.6 °F 85% 29.79 in 4.0 mi NW 12.7 mph 17.3 mph N/A   Overcast
9:35 PM 26.2 °F 17.8 °F 22.8 °F 87% 29.80 in 2.5 mi NW 8.1 mph 17.3 mph N/A   Overcast
9:55 PM 25.7 °F 17.1 °F 22.1 °F 86% 29.81 in 2.0 mi NW 8.1 mph 18.4 mph N/A   Overcast
10:15 PM 25.5 °F 16.9 °F 21.2 °F 84% 29.82 in 2.5 mi NW 8.1 mph 19.6 mph N/A   Overcast
10:35 PM 25.2 °F 15.1 °F 20.8 °F 84% 29.83 in 2.5 mi NW 10.4 mph - N/A   Overcast
10:54 PM 24.8 °F 16.1 °F 20.3 °F 83% 29.83 in 3.0 mi NW 8.1 mph 16.1 mph N/A   Overcast
11:14 PM 24.6 °F 16.7 °F 19.6 °F 81% 29.83 in 5.0 mi NNW 6.9 mph - N/A   Overcast
11:35 PM 24.6 °F 18.8 °F 18.9 °F 79% 29.84 in 10.0 mi NW 4.6 mph - N/A   Overcast
11:54 PM 24.4 °F 16.5 °F 18.5 °F 78% 29.85 in 7.0 mi NW 6.9 mph - N/A   Overcast